Location: ???????
(55.3754°N, 39.3545°E)
Time: 21:06:05
(UTC+00:00)

NOSS 3-4 (A) - Pass Details

Date: 14 April 2026
Orbit: 769 x 1442 km, 63.4° (Epoch: 10 January)

Event Time Altitude Azimuth Distance (km) Brightness Sun altitude
Rises 19:54:58 0° 242° (WSW) 3,271 6.2 -22.4°
Reaches altitude 10° 19:57:17 10° 245° (WSW) 2,381 5.5 -22.6°
Maximum altitude 20:02:42 68° 328° (NNW) 934 3.5 -22.9°
Drops below altitude 10° 20:08:56 10° 52° (NE) 2,721 6.0 -23.2°
Sets 20:11:44 0° 55° (NE) 3,775 6.8 -23.3°
